Regional Weather Roundup
Issued by NWS Pendleton, OR

Home | Current Version | Previous Version | Text Only | Print | Product List | Glossary On
Versions: 1 2 3 4 5 6 7 8 9 10 11 12 13 14 15 16 17 18 19 20 21 22 23 24 25 26 27 28 29 30 31 32 33 34 35 36 37 38 39 40 41 42 43 44 45 46 47 48 49 50
000
ASUS46 KPDT 290925
RWRPDT
PENDLETON REGIONAL WEATHER ROUNDUP
NATIONAL WEATHER SERVICE PENDLETON OREGON
200 AM PDT MON AUG 29 2016

NOTE: FAIR INDICATES FEW OR NO CLOUDS BELOW 12,000 FEET WITH NO
SIGNIFICANT WEATHER AND/OR OBSTRUCTIONS TO VISIBILITY.

# INDICATES UNOFFICIAL STATION AND DATA

WAZ520-291010-
EAST SLOPES OF WASHINGTON CASCADES

CITY            SKY/WX      TMP DP  RH  WIND    PRES   REMARKS
#CLE ELUM HS    N/A         50  41  71  CALM    30.02S
#CLE ELUM 2NW   N/A         49  41  74  NW1     N/A
#GLENWOOD       N/A         46  42  86  CALM    30.01R
#MANASTASH CYN  N/A         55  37  51  CALM    30.07F
#NELSON 3SW     N/A         54  42  64  CALM    30.20F
#NILE           N/A         52  44  74  CALM    29.31R
#RONALD 2NW     N/A         58  N/A N/A N1      29.97F
#TEANAWAY 4NE   N/A         51  42  71  CALM    N/A
#TROUT LAKE 1NE N/A         56  44  64  CALM    29.98F
#TROUT LAKE 1E  N/A         52  47  83  CALM    30.02F
$$

WAZ521-291010-
SIMCOE HIGHLANDS

CITY            SKY/WX      TMP DP  RH  WIND    PRES   REMARKS
#CENTERVILLE 1SWN/A         55  42  61  CALM    29.93F
#GOLDENDALE 1NE N/A         60  27  28  CALM    N/A
#GOLDENDALE 4W  N/A         58  50  75  CALM    30.06F
#GOODNOE HILLS  N/A         70  44  39  W3      29.92F
#LYLE 6NE       N/A         65  49  56  N1      29.93F
$$

WAZ026-291010-
KITTITAS VALLEY

CITY            SKY/WX      TMP DP  RH  WIND    PRES   REMARKS
ELLENSBURG AP   PTCLDY      54  44  69  CALM    30.06S
#ELLENSBURG CWU N/A         56  47  72  CALM    29.95S
#ELLENSBURG 3NE N/A         51  44  77  CALM    30.06R
#ELLENSBURG     N/A         56  50  80  NE1     N/A
#ELLENSBURG 1E  N/A         51  N/A N/A CALM    N/A
#KITTITAS 4N    N/A         59  39  47  CALM    30.01S
#KITTITAS 3S    N/A         49  46  89  CALM    29.98S
#THORP 6N       N/A         57  40  53  N3      30.02S
$$

WAZ027-291010-
YAKIMA VALLEY

CITY            SKY/WX      TMP DP  RH  WIND    PRES   REMARKS
SUNNYSIDE AP    N/A         53  49  86  CALM    30.01R
YAKIMA AIRPORT  PTCLDY      56  44  64  W7      30.03S
YAKIMA-VAGABOND N/A         62  39  43  SW2     30.03S
#DONALD 2NE     N/A         69   7   9  N1      28.86S
#GRANDVIEW      N/A         60  47  62  CALM    29.98S
#MABTON         N/A         57  46  67  CALM    30.00R
#NACHES 2SW     N/A         61  47  60  W2      30.07R
#TERRACE HTS    N/A         60  45  58  CALM    29.94S
#TOPPENISH      N/A         61  53  75  CALM    29.89S
#WEST VALLEY    N/A         58  45  62  CALM    29.97S
#WHITE SWAN 5E  N/A         56  47  72  CALM    29.98S
#WILEY CITY 3W  N/A         61  38  42  CALM    30.01S
$$

WAZ028-291010-
LOWER COLUMBIA BASIN...WASHINGTON

CITY            SKY/WX      TMP DP  RH  WIND    PRES   REMARKS
PASCO           PTCLDY      59  49  69  N3      29.99S
PROSSER AWOS    N/A         54  48  80  CALM    30.03S
RICHLAND AWOS   PTCLDY      63  46  54  W7      29.99S
#BENTON CITY    N/A         60  45  58  NW2     29.87S
#CONNELL 5N     N/A         61  36  39  NE1     29.96F
#CONNELL 5NW    N/A         59  38  45  E2      29.92F
#ELTOPIA 6NW    N/A         60  44  55  CALM    28.96F
#KAHLOTUS       N/A         64  34  33  S6      29.95F
#KENNEWICK 3S   N/A         67  42  40  CALM    29.96S
#PATERSON       N/A         67  45  45  CALM    29.94S
#SAGEMOOR 2W    N/A         63  44  50  NW3     29.81S
#TOUCHET 2S     N/A         53  45  74  CALM    29.93S
#WEST PASCO     N/A         64  48  56  CALM    29.97S
$$

WAZ029-291010-
FOOTHILLS OF THE BLUES...WASHINGTON

CITY            SKY/WX      TMP DP  RH  WIND    PRES   REMARKS
WALLA WALLA AP  PTCLDY      67  42  40  E5      29.99S
#CLYDE 6NW      N/A         66  34  30  E2      29.93F
#DAYTON SCHOOL  N/A         59  38  45  CALM    30.01F
#LOWDEN 2SE     N/A         56  49  77  CALM    29.94S
#PLEASANT VIEW 1N/A         65  33  30  CALM    29.98F
#PRESCOTT       N/A         62  44  52  CALM    29.93F
#WHITMAN COLLEGEN/A         69  46  44  N1      29.98F
#WAITSBURG 8N   N/A         68  18  15  N2      29.94S
#WHITMAN MISSIONN/A         57  50  77  CALM    29.96S
$$

WAZ030-291010-
BLUE MOUNTAINS...WASHINGTON

CITY            SKY/WX      TMP DP  RH  WIND    PRES   REMARKS
#DIXIE 5SE      N/A         74  40  29  N1      30.01F
$$

ORZ009-041-WAZ024-291010-
COLUMBIA RIVER GORGE

CITY            SKY/WX      TMP DP  RH  WIND    PRES   REMARKS
HOOD RIVER AP   PTCLDY      59  52  78  S3      30.02R
THE DALLES AP   PTCLDY      69  49  49  NW7     29.99R
#ARLINGTON AIRPON/A         71  48  44  CALM    29.96S
#LYLE           N/A         68  50  53  NE3     29.99S
#MARYHILL 2W    N/A         N/A N/A N/A CALM    N/A
#MOSIER 1S      N/A         63  36  36  CALM    30.00S
#MURDOCK        N/A         70  52  53  W8      29.94S
#RUFUS DOT      N/A         74  54  50  W2      N/A
#SMITHVILLE     N/A         70  51  51  N9      29.97R

$$

ORZ510-291010-
NORTH CENTRAL OREGON

CITY            SKY/WX      TMP DP  RH  WIND    PRES   REMARKS
#ANTELOPE       N/A         66  47  50  CALM    29.78F
#COW CYN RST AREN/A         66  N/A N/A NE2     N/A
#DUFUR 9E       N/A         70  49  47  N1      30.01S
#GRASS VALLEY 1SN/A         63  47  56  CALM    30.01S
#KENT DOT       N/A         64  42  45  N2      N/A
#MAUPIN SCHOOL  N/A         69  52  55  CALM    30.04S
#SHANIKO 5WSW   N/A         68  45  44  N12     N/A
#TYGH VALLEY 2NEN/A         63  48  58  CALM    29.96R
#WAPANITIA AIRPON/A         64  50  60  W1      29.96S
#WASCO DOT      N/A         59  48  67  CALM    N/A
#WASCO 5NE      N/A         66  46  48  CALM    29.95S
$$

ORZ511-291010-
CENTRAL OREGON

CITY            SKY/WX      TMP DP  RH  WIND    PRES   REMARKS
BEND AIRPORT    PTCLDY      59  45  60  CALM    30.11F
MADRAS AIRPORT  MOCLDY      68  52  57  NW3     30.09S
PRINEVILLE AP   MOCLDY      63  46  54  W7      30.10S
REDMOND AIRPORT MOCLDY      60  44  55  S5      30.10S
#ASHWOOD SCHOOL N/A         62  45  54  CALM    30.03F
#BEND 1SW       N/A         56  44  64  CALM    N/A
#BEND-AWBREY    N/A         65  44  46  CALM    29.93F
#CULVER         N/A         62  49  62  CALM    29.87S
#LAKE BILLY CHINN/A         66  N/A N/A CALM    30.13R
#MADRAS 4S      N/A         60  18  19  CALM    30.14R
#POWELL BUTTE 3EN/A         61  46  58  E1      N/A
#POWELL BUTTE   N/A         65  48  54  W6      29.98S
#PRINEVILLE 3N  N/A         58  50  75  CALM    30.00S
#WARM SPRINGS   N/A         69  51  53  CALM    30.02R

$$


ORZ509-291010-
EAST SLOPES OF OREGON CASCADES

CITY            SKY/WX      TMP DP  RH  WIND    PRES   REMARKS
SISTERS AWOS    N/A         55  43  64  CALM    30.09S
#BLUE BOX PASS  N/A         62  N/A N/A NE2     N/A
#CAMP SHERMAN   N/A         51  42  71  CALM    30.03S
#LA PINE DOT    N/A         54  43  66  CALM    N/A
#LA PINE 4NW    N/A         50  40  68  CALM    30.01S
#LAVA BUTTE DOT N/A         54  44  69  CALM    N/A
#SISTERS AIRPOR N/A         55  48  77  N1      30.17S
#SISTERS ODOT   N/A         54  N/A N/A CALM    N/A
#SISTERS 3N     N/A         53  38  57  CALM    30.04S
#SUNRIVER       N/A         56  45  66  CALM    29.96S
#SUTTLE LK DOT  N/A         51  42  71  SW16G24 N/A
#TUMALO 3W      N/A         66  41  40  W6      29.82S
#WANOGA BUTTE D N/A         60  40  47  N3      N/A

$$

ORZ044-291010-
LOWER COLUMBIA BASIN...OREGON

CITY            SKY/WX      TMP DP  RH  WIND    PRES   REMARKS
HERMISTON       MOCLDY      61  44  53  S5      29.98R
#BOARDMAN SCHOOLN/A         59  48  67  CALM    29.97S
#ECHO 8SW       N/A         61  45  56  SW1     29.98F
#I-84 EX 198 DOTN/A         68  46  45  CALM    N/A
#UMATILLA       N/A         64  42  45  CALM    29.89R
$$

ORZ507-291010-
NORTHERN FOOTHILLS OF THE BLUES

CITY            SKY/WX      TMP DP  RH  WIND    PRES   REMARKS
PENDLETON AIRPT PTCLDY      63  39  41  SE7     30.01R
#ADAMS 3WNW     N/A         55  37  51  CALM    29.95R
#ATHENA         N/A         56  41  57  CALM    29.97S
#CAYUSE         N/A         64  45  50  E3      29.93S
#HELIX SCHOOL   N/A         61  38  42  CALM    29.95R
#HELIX 3N       N/A         64  37  37  N5      30.00S
#HOLDMAN 5SE    N/A         62  39  43  CALM    30.00R
#HOLDMAN 6E     N/A         67  39  36  CALM    29.76S
#M-F GROVE ELEM N/A         64  43  46  CALM    29.97S
#M-FREEWATER 5SEN/A         68  46  45  CALM    29.99F
#PDT AQUATIC CTRN/A         60  34  37  CALM    30.02S
#PDT SUNRIDGE   N/A         57  40  53  CALM    30.01S
#PENDLETON 7NW  N/A         61  41  48  E6      32.42S
#PILOT ROCK 1S  N/A         66  41  40  CALM    30.03S
#PILOT ROCK     N/A         62  42  48  S3      30.02S
#TUTUILLA       N/A         54  45  71  CALM    29.98R
#UMAPINE 2E     N/A         57  48  72  CALM    29.95S
#WESTON SCHOOL  N/A         66  40  38  CALM    29.88S

$$

ORZ508-291010-
SOUTHERN FOOTHILLS OF THE BLUES

CITY            SKY/WX      TMP DP  RH  WIND    PRES   REMARKS
LEXINGTON       MOCLDY      64  39  40  E9      30.06S
#AJAX           N/A         70  43  38  CALM    27.80S
#CONDON SCHOOL  N/A         64  46  52  CALM    30.03F
#CONDON 5W      N/A         67  39  36  CALM    30.08S
#FOSSIL SCHOOL  N/A         59  42  53  CALM    30.03S
#HEPPNER EOC    N/A         65  43  45  E3      29.89S
#HEPPNER 4NE    N/A         65  41  41  E1      29.95S
#LEXINGTON 2SE  N/A         62  44  52  SE5     30.00S
#MIKKALO        N/A         64  43  46  SE5     30.14F
#OLEX 4N        N/A         65  45  48  S6      29.99S
#RUGGS 5NE      N/A         66  40  38  SW1     30.27S
#RUGGS 2SW      N/A         64  42  45  CALM    29.97R

$$

ORZ502-503-291010-
BLUE MOUNTAINS

CITY            SKY/WX      TMP DP  RH  WIND    PRES   REMARKS
MEACHAM         PTCLDY      48  36  63  CALM    30.13S
#BATTLE MTN DOT N/A         62  40  44  CALM    N/A
#CUTSFORTH PARK N/A         52  43  71  CALM    29.92F
#HARDMAN 10S    N/A         61  42  50  CALM    30.05F
#HEPPNER 15SE   N/A         56  41  57  CALM    25.66F
#LADD CYN SMT   N/A         57  41  55  CALM    N/A
#LADD CREEK ODOTN/A         59  44  57  S3      N/A
#LONG CREEK HS  N/A         57  44  62  CALM    30.12F
#N POWDER DOT   N/A         51  48  89  W3      N/A
#PIKES PEAK     N/A         73  41  31  SE3     27.99S
#TOLLGATE       N/A         60  39  46  VRB1    30.03F
#TROY SCHOOL    N/A         59  48  67  CALM    29.83S
#UKIAH          N/A         49  40  71  CALM    29.92S
#WESTON 4E      N/A         70  41  35  E2      29.91S
$$

ORZ505-291010-
JOHN DAY BASIN

CITY            SKY/WX      TMP DP  RH  WIND    PRES   REMARKS
JOHN DAY        PTCLDY      66  42  42  SW3     30.13R
#DAYVILLE SCHOOLN/A         68  40  36  CALM    30.03R
#MITCHELL       N/A         62  47  58  E1      30.26F
#MITCHELL 8NW   N/A         68  43  40  CALM    30.11F
#MT. VERNON 5SE N/A         63  42  46  CALM    30.09S
#SPRAY SCHOOL   N/A         63  N/A N/A CALM    N/A
$$

ORZ506-291010-
OCHOCO AND JOHN DAY HIGHLANDS

CITY            SKY/WX      TMP DP  RH  WIND    PRES   REMARKS
#BUCK CREEK DOT N/A         66  46  48  W5      N/A
#HORSE RIDGE DO N/A         52  40  63  CALM    N/A
#KEYES SMT DOT  N/A         64  42  45  SE3     N/A
#PAULINA SCHOOL N/A         66  41  40  E1      N/A
#PINE MTN OBS   N/A         57  45  64  NW3     N/A
#PRAIRIE CITY   N/A         54  43  66  CALM    30.28R
#SENECA         N/A         48  N/A N/A CALM    N/A
#SENECA 9NW     N/A         46  33  60  CALM    29.96S
$$

ORZ049-291010-
GRANDE RONDE VALLEY

CITY            SKY/WX      TMP DP  RH  WIND    PRES   REMARKS
LA GRANDE       PTCLDY      59  36  42  CALM    30.08R
#COVE           N/A         57  47  69  CALM    30.11S
#COVE SCHOOL    N/A         56  45  66  CALM    30.10S
#COVE 6NW       N/A         56  44  64  CALM    29.96S
#ELGIN 3N       N/A         59  39  47  CALM    30.06S
#ELGIN 1E       N/A         60  42  51  CALM    N/A
#IMBLER SCHOOL  N/A         64  43  46  N3      30.04S
#ISLAND CITY 4N N/A         58  53  83  CALM    30.02S
#LADD CYN DOT   N/A         64  44  48  SE13    N/A
#LA GRANDE ELEM N/A         62  43  50  CALM    30.09S
#UNION 1S       N/A         59  45  60  CALM    29.86R
$$

ORZ050-291010-
WALLOWA COUNTY

CITY            SKY/WX      TMP DP  RH  WIND    PRES   REMARKS
JOSEPH AIRPORT  PTCLDY      54  41  61  CALM    30.16S
#IMNAHA SCHOOL  N/A         57  41  55  N3      30.20S
#IMNAHA 10S     N/A         61  41  48  SW3     30.10S
#JOSEPH 3W      N/A         60  43  53  SW3     30.00F
#LOSTINE        N/A         53  43  69  CALM    29.78S
#LOSTINE 3SE    N/A         54  41  61  SE1     30.11F
#MT HOWARD 8000 N/A         60  36  41  SE9     30.41S
#PROMISE 1S     N/A         57  40  53  E1      30.06F
#WALLOWA SCHOOL N/A         51  44  77  CALM    30.07S



$$



USA.gov is the U.S. government's official web portal to all federal, state and local government web resources and services.